Weather History for KBRO - October, 2012

Change the Weather History Date:

Sunday, October 7, 2012

  Actual Average Record
Temperature  
Mean Temperature 76 °F 78 °F  
Max Temperature 85 °F 87 °F 99 °F (1900)
Min Temperature 66 °F 69 °F 55 °F (2000)
Degree Days  
Heating Degree Days 0 0  
Month to date heating degree days 0 0  
Since 1 July heating degree days 0 0  
Cooling Degree Days 11 13  
Month to date cooling degree days 97 95  
Year to date cooling degree days 4109 3506  
Growing Degree Days 25 (Base 50)    
Moisture  
Dew Point 69 °F    
Average Humidity 77    
Maximum Humidity 93    
Minimum Humidity 61    
Precipitation  
Precipitation 0.07 in 0.13 in 2.14 in (1978)
Month to date precipitation 0.07 1.05  
Year to date precipitation 20.19 21.78  
Sea Level Pressure  
Sea Level Pressure 30.01 in    
Wind  
Wind Speed 10 mph (NNE)    
Max Wind Speed 22 mph    
Max Gust Speed 30 mph    
Visibility 9 miles    
Events Rain    
T = Trace of Precipitation, MM = Missing Value Source: NWS Daily Summary

Daily Weather History Graph

Daily Weather History Graph

Search for Another Location

Airport or City:

Trip Planner

Search our weather history database for the weather conditions in past years. The results will help you decide how hot, cold, wet, or windy it might be!

Date:

Astronomy

Oct. 07, 2012 Rise Set
Actual Time 7:24 AM CDT 7:09 PM CDT
Civil Twilight 7:01 AM CDT 7:32 PM CDT
Nautical Twilight 6:35 AM CDT 7:59 PM CDT
Astronomical Twilight 6:08 AM CDT 8:25 PM CDT
Moon No Moon Rise 1:39 PM CDT (10/7)
Length of Visible Light 12h 30m
Length of Day
11h 44m
Waning Gibbous, 56% of the Moon is Illuminated
Oct 7
Waning Gibbous
Oct 8
Last Quarter
Oct 15
New
Oct 21
First Quarter
Oct 29
Full

Hourly Weather History & Observations

Time (CDT) Temp. Heat Index Dew Point Humidity Pressure Visibility Wind Dir Wind Speed Gust Speed Precip Events Conditions
12:53 AM 73.9 °F - 72.0 °F 93% 29.95 in 10.0 mi East 4.6 mph - N/A   Clear
1:53 AM 73.9 °F - 72.0 °F 93% 29.94 in 10.0 mi ENE 5.8 mph - N/A   Partly Cloudy
2:53 AM 75.0 °F - 72.0 °F 90% 29.94 in 10.0 mi ENE 3.5 mph - N/A   Clear
3:53 AM 73.9 °F - 72.0 °F 93% 29.94 in 10.0 mi ENE 3.5 mph - N/A   Clear
4:53 AM 73.9 °F - 72.0 °F 93% 29.94 in 10.0 mi ENE 5.8 mph - N/A   Clear
5:53 AM 73.9 °F - 71.1 °F 91% 29.95 in 10.0 mi North 4.6 mph - N/A   Clear
6:53 AM 72.0 °F - 70.0 °F 93% 29.97 in 10.0 mi Calm Calm - N/A   Clear
7:43 AM 73.4 °F - 71.6 °F 94% 29.99 in 10.0 mi North 5.8 mph - N/A   Mostly Cloudy
7:53 AM 73.9 °F - 71.1 °F 91% 29.99 in 10.0 mi North 5.8 mph - N/A   Mostly Cloudy
8:46 AM 73.4 °F - 71.6 °F 94% 30.02 in 9.0 mi North 10.4 mph - N/A   Scattered Clouds
8:53 AM 75.0 °F - 71.1 °F 87% 30.01 in 9.0 mi North 10.4 mph - N/A   Partly Cloudy
9:53 AM 78.1 °F - 72.0 °F 81% 30.03 in 10.0 mi NNE 10.4 mph 25.3 mph N/A   Partly Cloudy
10:53 AM 81.0 °F 85.2 °F 72.0 °F 74% 30.04 in 10.0 mi NNE 16.1 mph 26.5 mph N/A   Partly Cloudy
11:08 AM 80.6 °F 84.6 °F 71.6 °F 74% 30.04 in 10.0 mi NNE 13.8 mph 23.0 mph N/A   Mostly Cloudy
11:42 AM 84.2 °F 89.6 °F 71.6 °F 66% 30.04 in 10.0 mi NE 20.7 mph 29.9 mph N/A   Mostly Cloudy
11:53 AM 82.0 °F 86.3 °F 71.1 °F 69% 30.04 in 10.0 mi NNE 18.4 mph 28.8 mph N/A   Mostly Cloudy
12:07 PM 80.6 °F 84.6 °F 71.6 °F 74% 30.04 in 10.0 mi ENE 19.6 mph 25.3 mph N/A   Mostly Cloudy
12:29 PM 82.4 °F 86.3 °F 69.8 °F 66% 30.04 in 10.0 mi NE 16.1 mph 23.0 mph N/A   Mostly Cloudy
12:53 PM 84.0 °F 87.8 °F 69.1 °F 61% 30.04 in 10.0 mi ENE 15.0 mph 24.2 mph N/A   Overcast
1:53 PM 82.9 °F 87.5 °F 71.1 °F 67% 30.01 in 10.0 mi ENE 12.7 mph - N/A   Mostly Cloudy
2:53 PM 81.0 °F 84.1 °F 69.1 °F 67% 30.00 in 10.0 mi ENE 12.7 mph - N/A   Overcast
3:53 PM 79.0 °F - 68.0 °F 69% 29.99 in 10.0 mi NNE 12.7 mph - N/A   Overcast
4:45 PM 73.4 °F - 69.8 °F 88% 29.98 in 10.0 mi NNW 13.8 mph 18.4 mph 0.00 in   Overcast
4:53 PM 72.0 °F - 69.1 °F 91% 29.99 in 10.0 mi NNW 13.8 mph 20.7 mph 0.00 in   Overcast
5:41 PM 69.8 °F - 66.2 °F 88% 30.00 in 10.0 mi North 11.5 mph 18.4 mph N/A   Overcast
5:53 PM 70.0 °F - 66.0 °F 87% 29.99 in 10.0 mi NNW 10.4 mph 18.4 mph N/A   Overcast
6:53 PM 68.0 °F - 64.9 °F 90% 30.01 in 6.0 mi North 11.5 mph 20.7 mph 0.00 in Rain Light Rain
7:53 PM 68.0 °F - 64.9 °F 90% 30.02 in 8.0 mi NNW 13.8 mph 17.3 mph 0.00 in   Overcast
8:53 PM 66.9 °F - 64.9 °F 93% 30.04 in 6.0 mi NNW 12.7 mph 20.7 mph 0.02 in Rain Light Rain
9:53 PM 66.0 °F - 64.9 °F 96% 30.06 in 7.0 mi NW 11.5 mph - 0.02 in Rain Light Rain
10:11 PM 66.2 °F - 64.4 °F 94% 30.07 in 9.0 mi NNW 10.4 mph - 0.00 in   Overcast
10:53 PM 66.0 °F - 64.0 °F 93% 30.07 in 9.0 mi NNW 9.2 mph - 0.02 in Rain Light Rain
11:48 PM 66.2 °F - 64.4 °F 94% 30.07 in 9.0 mi NW 8.1 mph - 0.01 in Rain Light Rain
11:53 PM 66.0 °F - 64.0 °F 93% 30.07 in 9.0 mi NW 10.4 mph - 0.01 in Rain Light Rain